Time,TemperatureF,DewpointF,PressureIn,WindDirection,WindDirectionDegrees,WindSpeedMPH,WindSpeedGustMPH,Humidity,HourlyPrecipIn,Conditions,Clouds,dailyrainin,SoftwareType,DateUTC
2013-05-25 00:08:00,71.0,21.0,29.81,SSE,152,2.0,3.0,15,0.00,,,0.00,Wunderground v.1.15,2013-05-25 06:08:00,
2013-05-25 00:13:00,70.9,22.4,29.82,SE,135,2.0,3.0,16,0.00,,,0.00,Wunderground v.1.15,2013-05-25 06:13:00,
2013-05-25 00:23:00,70.8,22.3,29.81,ESE,105,2.0,2.0,16,0.00,,,0.00,Wunderground v.1.15,2013-05-25 06:23:00,
2013-05-25 00:33:00,70.5,20.6,29.81,SE,132,1.0,2.0,15,0.00,,,0.00,Wunderground v.1.15,2013-05-25 06:33:00,
2013-05-25 00:43:00,69.6,21.4,29.81,ESE,120,0.0,1.0,16,0.00,,,0.00,Wunderground v.1.15,2013-05-25 06:43:00,
2013-05-25 00:53:00,69.5,21.3,29.82,ESE,114,1.0,2.0,16,0.00,,,0.00,Wunderground v.1.15,2013-05-25 06:53:00,
2013-05-25 00:59:00,69.4,19.7,29.82,ESE,117,2.0,2.0,15,0.00,,,0.00,Wunderground v.1.15,2013-05-25 06:59:00,
2013-05-25 01:08:00,69.0,19.4,29.82,SSE,155,2.0,2.0,15,0.00,,,0.00,Wunderground v.1.15,2013-05-25 07:08:00,
2013-05-25 01:18:00,68.5,20.5,29.82,SE,124,2.0,2.0,16,0.00,,,0.00,Wunderground v.1.15,2013-05-25 07:18:00,
2013-05-25 01:23:00,68.4,18.9,29.82,ESE,122,2.0,2.0,15,0.00,,,0.00,Wunderground v.1.15,2013-05-25 07:23:00,
2013-05-25 01:33:00,68.1,18.7,29.82,SE,128,2.0,2.0,15,0.00,,,0.00,Wunderground v.1.15,2013-05-25 07:33:00,
2013-05-25 01:38:00,68.2,17.1,29.82,ESE,119,2.0,2.0,14,0.00,,,0.00,Wunderground v.1.15,2013-05-25 07:38:00,
2013-05-25 01:48:00,68.6,17.4,29.82,ESE,117,3.0,3.0,14,0.00,,,0.00,Wunderground v.1.15,2013-05-25 07:48:00,
2013-05-25 01:58:00,68.1,17.0,29.82,ESE,123,1.0,1.0,14,0.00,,,0.00,Wunderground v.1.15,2013-05-25 07:58:00,
2013-05-25 02:08:00,66.7,19.0,29.83,ESE,121,0.0,0.0,16,0.00,,,0.00,Wunderground v.1.15,2013-05-25 08:08:00,
2013-05-25 02:18:00,65.4,19.4,29.83,ESE,121,0.0,0.0,17,0.00,,,0.00,Wunderground v.1.15,2013-05-25 08:18:00,
2013-05-25 02:23:00,64.7,20.2,29.83,ESE,122,0.0,0.0,18,0.00,,,0.00,Wunderground v.1.15,2013-05-25 08:23:00,
2013-05-25 02:33:00,63.6,21.7,29.84,ESE,122,0.0,0.0,20,0.00,,,0.00,Wunderground v.1.15,2013-05-25 08:33:00,
2013-05-25 02:43:00,62.6,22.1,29.84,ESE,122,0.0,0.0,21,0.00,,,0.00,Wunderground v.1.15,2013-05-25 08:43:00,
2013-05-25 02:48:00,62.1,21.7,29.84,East,91,0.0,0.0,21,0.00,,,0.00,Wunderground v.1.15,2013-05-25 08:48:00,
2013-05-25 02:53:00,61.6,22.3,29.85,East,91,0.0,0.0,22,0.00,,,0.00,Wunderground v.1.15,2013-05-25 08:53:00,
2013-05-25 02:58:00,60.9,22.8,29.84,East,91,0.0,0.0,23,0.00,,,0.00,Wunderground v.1.15,2013-05-25 08:58:00,
2013-05-25 03:08:00,59.9,23.0,29.85,East,91,0.0,0.0,24,0.00,,,0.00,Wunderground v.1.15,2013-05-25 09:08:00,
2013-05-25 03:13:00,59.5,22.6,29.86,East,91,0.0,0.0,24,0.00,,,0.00,Wunderground v.1.15,2013-05-25 09:13:00,
2013-05-25 03:23:00,59.8,23.9,29.86,East,91,0.0,0.0,25,0.00,,,0.00,Wunderground v.1.15,2013-05-25 09:23:00,
2013-05-25 03:28:00,59.4,23.5,29.86,East,91,0.0,0.0,25,0.00,,,0.00,Wunderground v.1.15,2013-05-25 09:28:00,
2013-05-25 03:33:00,58.8,23.9,29.86,East,91,0.0,0.0,26,0.00,,,0.00,Wunderground v.1.15,2013-05-25 09:33:00,
2013-05-25 03:43:00,58.1,24.3,29.86,ENE,65,0.0,0.0,27,0.00,,,0.00,Wunderground v.1.15,2013-05-25 09:43:00,
2013-05-25 03:53:00,58.0,24.2,29.86,ENE,65,0.0,0.0,27,0.00,,,0.00,Wunderground v.1.15,2013-05-25 09:53:00,
2013-05-25 03:58:00,57.8,24.0,29.86,SE,133,0.0,1.0,27,0.00,,,0.00,Wunderground v.1.15,2013-05-25 09:58:00,
2013-05-25 04:08:00,57.9,23.2,29.86,SE,134,0.0,0.0,26,0.00,,,0.00,Wunderground v.1.15,2013-05-25 10:08:00,
2013-05-25 04:13:00,58.0,24.2,29.86,ESE,117,0.0,0.0,27,0.00,,,0.00,Wunderground v.1.15,2013-05-25 10:13:00,
2013-05-25 04:18:00,58.0,23.3,29.87,NE,46,1.0,1.0,26,0.00,,,0.00,Wunderground v.1.15,2013-05-25 10:18:00,
2013-05-25 04:28:00,57.7,23.0,29.87,ENE,59,0.0,0.0,26,0.00,,,0.00,Wunderground v.1.15,2013-05-25 10:28:00,
2013-05-25 04:38:00,57.6,22.9,29.86,ESE,123,0.0,1.0,26,0.00,,,0.00,Wunderground v.1.15,2013-05-25 10:38:00,
2013-05-25 04:43:00,58.0,24.2,29.86,ESE,120,0.0,1.0,27,0.00,,,0.00,Wunderground v.1.15,2013-05-25 10:43:00,
2013-05-25 04:53:00,57.9,23.2,29.86,SE,134,0.0,2.0,26,0.00,,,0.00,Wunderground v.1.15,2013-05-25 10:53:00,
2013-05-25 04:59:00,58.5,22.8,29.87,ESE,121,1.0,1.0,25,0.00,,,0.00,Wunderground v.1.15,2013-05-25 10:59:00,
2013-05-25 05:08:00,59.1,22.3,29.87,ESE,117,1.0,1.0,24,0.00,,,0.00,Wunderground v.1.15,2013-05-25 11:08:00,
2013-05-25 05:18:00,58.4,23.6,29.88,SE,126,0.0,0.0,26,0.00,,,0.00,Wunderground v.1.15,2013-05-25 11:18:00,
2013-05-25 05:28:00,58.4,23.6,29.88,ESE,121,1.0,1.0,26,0.00,,,0.00,Wunderground v.1.15,2013-05-25 11:28:00,
2013-05-25 05:33:00,59.0,21.2,29.88,ESE,118,1.0,1.0,23,0.00,,,0.00,Wunderground v.1.15,2013-05-25 11:33:00,
2013-05-25 05:43:00,57.9,24.1,29.89,NW,309,1.0,1.0,27,0.00,,,0.00,Wunderground v.1.15,2013-05-25 11:43:00,
2013-05-25 05:53:00,57.3,23.6,29.90,NW,312,0.0,1.0,27,0.00,,,0.00,Wunderground v.1.15,2013-05-25 11:53:00,
2013-05-25 05:59:00,56.7,23.9,29.90,NW,311,0.0,0.0,28,0.00,,,0.00,Wunderground v.1.15,2013-05-25 11:59:00,
2013-05-25 06:08:00,55.9,22.4,29.90,NW,312,0.0,0.0,27,0.00,,,0.00,Wunderground v.1.15,2013-05-25 12:08:00,
2013-05-25 06:18:00,55.3,23.5,29.91,NW,311,0.0,0.0,29,0.00,,,0.00,Wunderground v.1.15,2013-05-25 12:18:00,
2013-05-25 06:28:00,54.7,25.4,29.91,NW,311,0.0,0.0,32,0.00,,,0.00,Wunderground v.1.15,2013-05-25 12:28:00,
2013-05-25 06:38:00,54.9,25.6,29.92,NW,311,0.0,0.0,32,0.00,,,0.00,Wunderground v.1.15,2013-05-25 12:38:00,
2013-05-25 06:43:00,55.3,25.9,29.92,NW,311,0.0,0.0,32,0.00,,,0.00,Wunderground v.1.15,2013-05-25 12:43:00,
2013-05-25 06:53:00,55.6,26.9,29.92,NW,312,0.0,0.0,33,0.00,,,0.00,Wunderground v.1.15,2013-05-25 12:53:00,
2013-05-25 06:58:00,55.6,28.4,29.92,NW,312,0.0,0.0,35,0.00,,,0.00,Wunderground v.1.15,2013-05-25 12:58:00,
2013-05-25 07:08:00,56.2,28.9,29.92,ESE,115,0.0,0.0,35,0.00,,,0.00,Wunderground v.1.15,2013-05-25 13:08:00,
2013-05-25 07:13:00,58.0,26.7,29.92,SE,124,0.0,0.0,30,0.00,,,0.00,Wunderground v.1.15,2013-05-25 13:13:00,
2013-05-25 07:18:00,59.1,27.7,29.92,SE,124,0.0,0.0,30,0.00,,,0.00,Wunderground v.1.15,2013-05-25 13:18:00,
2013-05-25 07:28:00,60.3,27.0,29.93,South,174,0.0,0.0,28,0.00,,,0.00,Wunderground v.1.15,2013-05-25 13:28:00,
2013-05-25 07:38:00,61.5,24.3,29.93,SSE,148,0.0,0.0,24,0.00,,,0.00,Wunderground v.1.15,2013-05-25 13:38:00,
2013-05-25 07:48:00,63.2,22.6,29.93,SSE,152,0.0,0.0,21,0.00,,,0.00,Wunderground v.1.15,2013-05-25 13:48:00,
2013-05-25 07:53:00,64.0,20.9,29.93,SE,145,0.0,1.0,19,0.00,,,0.00,Wunderground v.1.15,2013-05-25 13:53:00,
2013-05-25 07:58:00,64.9,19.0,29.93,SE,141,1.0,2.0,17,0.00,,,0.00,Wunderground v.1.15,2013-05-25 13:58:00,
2013-05-25 08:08:00,66.1,21.3,29.93,SE,129,1.0,1.0,18,0.00,,,0.00,Wunderground v.1.15,2013-05-25 14:08:00,
2013-05-25 08:13:00,66.8,20.5,29.92,SSE,150,1.0,1.0,17,0.00,,,0.00,Wunderground v.1.15,2013-05-25 14:13:00,
2013-05-25 08:18:00,67.3,22.3,29.92,SSE,149,1.0,1.0,18,0.00,,,0.00,Wunderground v.1.15,2013-05-25 14:18:00,
2013-05-25 08:28:00,68.4,20.4,29.93,South,178,1.0,2.0,16,0.00,,,0.00,Wunderground v.1.15,2013-05-25 14:28:00,
2013-05-25 08:33:00,68.9,19.3,29.93,SE,132,2.0,4.0,15,0.00,,,0.00,Wunderground v.1.15,2013-05-25 14:33:00,
2013-05-25 08:38:00,69.3,19.6,29.93,SSW,211,2.0,4.0,15,0.00,,,0.00,Wunderground v.1.15,2013-05-25 14:38:00,
2013-05-25 08:48:00,70.1,18.6,29.93,South,188,2.0,2.0,14,0.00,,,0.00,Wunderground v.1.15,2013-05-25 14:48:00,
2013-05-25 08:53:00,70.4,18.9,29.93,SSE,165,2.0,5.0,14,0.00,,,0.00,Wunderground v.1.15,2013-05-25 14:53:00,
2013-05-25 08:58:00,70.8,17.5,29.93,South,179,3.0,3.0,13,0.00,,,0.00,Wunderground v.1.15,2013-05-25 14:58:00,
2013-05-25 09:08:00,71.4,17.9,29.93,ESE,105,3.0,3.0,13,0.00,,,0.00,Wunderground v.1.15,2013-05-25 15:08:00,
2013-05-25 09:18:00,72.0,16.6,29.93,SSE,148,3.0,4.0,12,0.00,,,0.00,Wunderground v.1.15,2013-05-25 15:18:00,
2013-05-25 09:23:00,72.7,17.1,29.93,SSE,166,3.0,4.0,12,0.00,,,0.00,Wunderground v.1.15,2013-05-25 15:23:00,
2013-05-25 09:33:00,74.0,20.0,29.93,SSW,207,2.0,4.0,13,0.00,,,0.00,Wunderground v.1.15,2013-05-25 15:33:00,
2013-05-25 09:43:00,74.4,28.1,29.92,West,267,3.0,5.0,18,0.00,,,0.00,Wunderground v.1.15,2013-05-25 15:43:00,
2013-05-25 09:53:00,74.9,28.5,29.92,SSW,201,3.0,3.0,18,0.00,,,0.00,Wunderground v.1.15,2013-05-25 15:53:00,
2013-05-25 09:59:00,75.6,30.4,29.92,SSW,193,3.0,10.0,19,0.00,,,0.00,Wunderground v.1.15,2013-05-25 15:59:00,
2013-05-25 10:08:00,75.9,31.9,29.92,West,269,3.0,3.0,20,0.00,,,0.00,Wunderground v.1.15,2013-05-25 16:08:00,
2013-05-25 10:13:00,76.6,32.5,29.91,SW,218,2.0,3.0,20,0.00,,,0.00,Wunderground v.1.15,2013-05-25 16:13:00,
2013-05-25 10:18:00,76.6,31.2,29.91,SSW,198,3.0,3.0,19,0.00,,,0.00,Wunderground v.1.15,2013-05-25 16:18:00,
2013-05-25 10:28:00,76.9,34.0,29.91,SSE,162,3.0,3.0,21,0.00,,,0.00,Wunderground v.1.15,2013-05-25 16:28:00,
2013-05-25 10:33:00,76.9,35.1,29.91,SE,125,4.0,4.0,22,0.00,,,0.00,Wunderground v.1.15,2013-05-25 16:33:00,
2013-05-25 10:38:00,77.4,36.7,29.91,SSW,196,4.0,4.0,23,0.00,,,0.00,Wunderground v.1.15,2013-05-25 16:38:00,
2013-05-25 10:48:00,77.5,36.8,29.90,SE,132,3.0,6.0,23,0.00,,,0.00,Wunderground v.1.15,2013-05-25 16:48:00,
2013-05-25 10:53:00,77.8,35.9,29.90,SSW,195,4.0,6.0,22,0.00,,,0.00,Wunderground v.1.15,2013-05-25 16:53:00,
2013-05-25 10:58:00,78.2,36.2,29.90,South,173,4.0,7.0,22,0.00,,,0.00,Wunderground v.1.15,2013-05-25 16:58:00,
2013-05-25 11:08:00,78.2,37.4,29.89,SE,125,4.0,4.0,23,0.00,,,0.00,Wunderground v.1.15,2013-05-25 17:08:00,
2013-05-25 11:13:00,78.7,37.8,29.89,South,184,4.0,4.0,23,0.00,,,0.00,Wunderground v.1.15,2013-05-25 17:13:00,
2013-05-25 11:23:00,78.9,39.0,29.88,NW,325,3.0,5.0,24,0.00,,,0.00,Wunderground v.1.15,2013-05-25 17:23:00,
2013-05-25 11:33:00,79.5,38.4,29.88,SSE,165,5.0,6.0,23,0.00,,,0.00,Wunderground v.1.15,2013-05-25 17:33:00,
2013-05-25 11:43:00,80.2,39.0,29.87,NE,49,3.0,5.0,23,0.00,,,0.00,Wunderground v.1.15,2013-05-25 17:43:00,
2013-05-25 11:53:00,80.6,37.0,29.87,South,172,4.0,6.0,21,0.00,,,0.00,Wunderground v.1.15,2013-05-25 17:53:00,
2013-05-25 11:58:00,80.4,36.9,29.86,SE,136,6.0,6.0,21,0.00,,,0.00,Wunderground v.1.15,2013-05-25 17:58:00,
2013-05-25 12:08:00,81.3,36.4,29.86,ESE,113,5.0,5.0,20,0.00,,,0.00,Wunderground v.1.15,2013-05-25 18:08:00,
2013-05-25 12:13:00,81.7,35.4,29.86,SW,224,5.0,9.0,19,0.00,,,0.00,Wunderground v.1.15,2013-05-25 18:13:00,
2013-05-25 12:18:00,81.9,34.2,29.86,SSE,153,5.0,10.0,18,0.00,,,0.00,Wunderground v.1.15,2013-05-25 18:18:00,
2013-05-25 12:23:00,82.0,34.3,29.85,SE,132,4.0,10.0,18,0.00,,,0.00,Wunderground v.1.15,2013-05-25 18:23:00,
2013-05-25 12:28:00,82.2,29.9,29.85,SSW,210,4.0,4.0,15,0.00,,,0.00,Wunderground v.1.15,2013-05-25 18:28:00,
2013-05-25 12:33:00,83.0,32.2,29.85,SSE,154,4.0,4.0,16,0.00,,,0.00,Wunderground v.1.15,2013-05-25 18:33:00,
2013-05-25 12:43:00,82.9,30.5,29.85,South,186,4.0,12.0,15,0.00,,,0.00,Wunderground v.1.15,2013-05-25 18:43:00,
2013-05-25 12:53:00,83.5,29.3,29.84,SE,128,4.0,4.0,14,0.00,,,0.00,Wunderground v.1.15,2013-05-25 18:53:00,
2013-05-25 12:58:00,84.1,27.9,29.84,SE,138,4.0,9.0,13,0.00,,,0.00,Wunderground v.1.15,2013-05-25 18:58:00,
2013-05-25 13:08:00,83.6,27.5,29.84,SSW,194,6.0,8.0,13,0.00,,,0.00,Wunderground v.1.15,2013-05-25 19:08:00,
2013-05-25 13:18:00,84.0,27.8,29.83,South,172,5.0,5.0,13,0.00,,,0.00,Wunderground v.1.15,2013-05-25 19:18:00,
2013-05-25 13:23:00,84.8,26.5,29.83,SE,129,4.0,5.0,12,0.00,,,0.00,Wunderground v.1.15,2013-05-25 19:23:00,
2013-05-25 13:28:00,85.5,25.0,29.82,SSE,148,4.0,13.0,11,0.00,,,0.00,Wunderground v.1.15,2013-05-25 19:28:00,
2013-05-25 13:38:00,85.0,22.3,29.82,SSW,204,6.0,9.0,10,0.00,,,0.00,Wunderground v.1.15,2013-05-25 19:38:00,
2013-05-25 13:48:00,85.9,27.4,29.81,SSW,203,6.0,11.0,12,0.00,,,0.00,Wunderground v.1.15,2013-05-25 19:48:00,
2013-05-25 13:53:00,85.4,24.9,29.81,SSE,159,5.0,11.0,11,0.00,,,0.00,Wunderground v.1.15,2013-05-25 19:53:00,
2013-05-25 13:58:00,85.3,26.9,29.81,SE,135,5.0,6.0,12,0.00,,,0.00,Wunderground v.1.15,2013-05-25 19:58:00,
2013-05-25 14:08:00,86.1,27.5,29.81,SW,215,5.0,5.0,12,0.00,,,0.00,Wunderground v.1.15,2013-05-25 20:08:00,
2013-05-25 14:18:00,85.6,25.0,29.80,WSW,242,4.0,10.0,11,0.00,,,0.00,Wunderground v.1.15,2013-05-25 20:18:00,
2013-05-25 14:28:00,86.3,25.6,29.80,SSW,207,8.0,8.0,11,0.00,,,0.00,Wunderground v.1.15,2013-05-25 20:28:00,
2013-05-25 14:33:00,86.3,25.6,29.80,SE,141,6.0,8.0,11,0.00,,,0.00,Wunderground v.1.15,2013-05-25 20:33:00,
2013-05-25 14:43:00,86.5,20.9,29.79,WSW,238,7.0,7.0,9,0.00,,,0.00,Wunderground v.1.15,2013-05-25 20:43:00,
2013-05-25 14:53:00,86.8,26.0,29.79,SW,234,5.0,14.0,11,0.00,,,0.00,Wunderground v.1.15,2013-05-25 20:53:00,
2013-05-25 14:58:00,86.9,23.8,29.78,SW,233,5.0,5.0,10,0.00,,,0.00,Wunderground v.1.15,2013-05-25 20:58:00,
2013-05-25 15:08:00,87.1,23.9,29.77,SSE,156,5.0,5.0,10,0.00,,,0.00,Wunderground v.1.15,2013-05-25 21:08:00,
2013-05-25 15:18:00,88.0,24.6,29.77,ESE,121,5.0,9.0,10,0.00,,,0.00,Wunderground v.1.15,2013-05-25 21:18:00,
2013-05-25 15:23:00,87.8,24.4,29.77,SW,219,6.0,9.0,10,0.00,,,0.00,Wunderground v.1.15,2013-05-25 21:23:00,
2013-05-25 15:33:00,89.1,22.9,29.76,ESE,123,4.0,4.0,9,0.00,,,0.00,Wunderground v.1.15,2013-05-25 21:33:00,
2013-05-25 15:43:00,89.2,20.2,29.75,SSW,200,5.0,5.0,8,0.00,,,0.00,Wunderground v.1.15,2013-05-25 21:43:00,
2013-05-25 15:48:00,89.3,20.3,29.75,SSE,153,7.0,7.0,8,0.00,,,0.00,Wunderground v.1.15,2013-05-25 21:48:00,
2013-05-25 15:59:00,89.6,23.3,29.74,SE,145,5.0,8.0,9,0.00,,,0.00,Wunderground v.1.15,2013-05-25 21:59:00,
2013-05-25 16:08:00,89.6,20.5,29.73,SW,214,8.0,9.0,8,0.00,,,0.00,Wunderground v.1.15,2013-05-25 22:08:00,
2013-05-25 16:18:00,89.3,20.3,29.73,SW,218,8.0,8.0,8,0.00,,,0.00,Wunderground v.1.15,2013-05-25 22:18:00,
2013-05-25 16:28:00,89.8,17.5,29.72,WSW,245,4.0,4.0,7,0.00,,,0.00,Wunderground v.1.15,2013-05-25 22:28:00,
2013-05-25 16:33:00,90.0,17.7,29.72,WNW,288,3.0,4.0,7,0.00,,,0.00,Wunderground v.1.15,2013-05-25 22:33:00,
2013-05-25 16:38:00,90.0,17.7,29.72,WSW,253,2.0,2.0,7,0.00,,,0.00,Wunderground v.1.15,2013-05-25 22:38:00,
2013-05-25 16:48:00,90.1,20.9,29.71,SW,221,4.0,4.0,8,0.00,,,0.00,Wunderground v.1.15,2013-05-25 22:48:00,
2013-05-25 16:58:00,89.9,17.6,29.70,South,184,2.0,2.0,7,0.00,,,0.00,Wunderground v.1.15,2013-05-25 22:58:00,
2013-05-25 17:08:00,90.0,14.1,29.70,SW,222,4.0,4.0,6,0.00,,,0.00,Wunderground v.1.15,2013-05-25 23:08:00,
2013-05-25 17:13:00,89.6,17.4,29.70,SE,139,5.0,5.0,7,0.00,,,0.00,Wunderground v.1.15,2013-05-25 23:13:00,
2013-05-25 17:23:00,88.8,13.2,29.69,WSW,257,4.0,4.0,6,0.00,,,0.00,Wunderground v.1.15,2013-05-25 23:23:00,
2013-05-25 17:33:00,90.2,17.8,29.69,West,259,2.0,3.0,7,0.00,,,0.00,Wunderground v.1.15,2013-05-25 23:33:00,
2013-05-25 17:43:00,90.8,10.5,29.68,West,270,4.0,5.0,5,0.00,,,0.00,Wunderground v.1.15,2013-05-25 23:43:00,
2013-05-25 17:53:00,91.2,5.9,29.68,SW,225,4.0,5.0,4,0.00,,,0.00,Wunderground v.1.15,2013-05-25 23:53:00,
2013-05-25 17:58:00,91.8,11.2,29.68,SSW,194,5.0,5.0,5,0.00,,,0.00,Wunderground v.1.15,2013-05-25 23:58:00,
2013-05-25 18:08:00,92.2,6.5,29.68,NNE,28,3.0,6.0,4,0.00,,,0.00,Wunderground v.1.15,2013-05-26 00:08:00,
2013-05-25 18:18:00,92.1,6.5,29.67,West,274,3.0,3.0,4,0.00,,,0.00,Wunderground v.1.15,2013-05-26 00:18:00,
2013-05-25 18:28:00,91.9,6.3,29.67,South,187,4.0,5.0,4,0.00,,,0.00,Wunderground v.1.15,2013-05-26 00:28:00,
2013-05-25 18:33:00,91.6,6.1,29.67,SSW,201,5.0,7.0,4,0.00,,,0.00,Wunderground v.1.15,2013-05-26 00:33:00,
2013-05-25 18:43:00,91.5,6.1,29.67,WNW,296,4.0,5.0,4,0.00,,,0.00,Wunderground v.1.15,2013-05-26 00:43:00,
2013-05-25 18:53:00,90.9,5.7,29.67,NW,319,5.0,5.0,4,0.00,,,0.00,Wunderground v.1.15,2013-05-26 00:53:00,
2013-05-25 19:00:00,90.3,5.2,29.67,WSW,239,6.0,6.0,4,0.00,,,0.00,Wunderground v.1.15,2013-05-26 01:00:00,
2013-05-25 19:53:00,86.3,2.5,29.68,SW,217,4.0,7.0,4,0.00,,,0.00,Wunderground v.1.15,2013-05-26 01:53:00,
2013-05-25 19:58:00,86.0,2.3,29.68,SW,214,4.0,4.0,4,0.00,,,0.00,Wunderground v.1.15,2013-05-26 01:58:00,
2013-05-25 20:08:00,85.1,1.7,29.69,WSW,243,2.0,8.0,4,0.00,,,0.00,Wunderground v.1.15,2013-05-26 02:08:00,
2013-05-25 20:18:00,84.7,6.2,29.69,WNW,300,3.0,3.0,5,0.00,,,0.00,Wunderground v.1.15,2013-05-26 02:18:00,
2013-05-25 20:28:00,83.5,5.4,29.69,ESE,112,1.0,1.0,5,0.00,,,0.00,Wunderground v.1.15,2013-05-26 02:28:00,
2013-05-25 20:33:00,82.8,4.9,29.69,West,264,0.0,2.0,5,0.00,,,0.00,Wunderground v.1.15,2013-05-26 02:33:00,
2013-05-25 20:43:00,82.0,8.3,29.70,SSW,207,1.0,1.0,6,0.00,,,0.00,Wunderground v.1.15,2013-05-26 02:43:00,
2013-05-25 20:53:00,81.2,7.8,29.70,WSW,255,0.0,0.0,6,0.00,,,0.00,Wunderground v.1.15,2013-05-26 02:53:00,
2013-05-25 20:58:00,80.8,7.5,29.70,SSE,155,1.0,1.0,6,0.00,,,0.00,Wunderground v.1.15,2013-05-26 02:58:00,
2013-05-25 21:08:00,80.6,10.8,29.70,SW,224,1.0,1.0,7,0.00,,,0.00,Wunderground v.1.15,2013-05-26 03:08:00,
2013-05-25 21:13:00,80.7,7.4,29.70,West,278,1.0,2.0,6,0.00,,,0.00,Wunderground v.1.15,2013-05-26 03:13:00,
2013-05-25 21:18:00,80.6,7.3,29.71,SSW,208,1.0,1.0,6,0.00,,,0.00,Wunderground v.1.15,2013-05-26 03:18:00,
2013-05-25 21:23:00,80.2,7.1,29.71,South,169,1.0,1.0,6,0.00,,,0.00,Wunderground v.1.15,2013-05-26 03:23:00,
2013-05-25 21:33:00,79.4,12.9,29.71,SE,131,0.0,0.0,8,0.00,,,0.00,Wunderground v.1.15,2013-05-26 03:33:00,
2013-05-25 21:43:00,78.7,12.4,29.72,SSE,152,1.0,1.0,8,0.00,,,0.00,Wunderground v.1.15,2013-05-26 03:43:00,
2013-05-25 21:53:00,78.2,12.0,29.72,ESE,121,1.0,1.0,8,0.00,,,0.00,Wunderground v.1.15,2013-05-26 03:53:00,
2013-05-25 21:59:00,78.0,11.9,29.73,SE,139,1.0,1.0,8,0.00,,,0.00,Wunderground v.1.15,2013-05-26 03:59:00,
2013-05-25 22:03:00,77.9,11.8,29.74,SW,214,1.0,2.0,8,0.00,,,0.00,Wunderground v.1.15,2013-05-26 04:03:00,
2013-05-25 22:08:00,77.7,11.6,29.74,SW,233,1.0,1.0,8,0.00,,,0.00,Wunderground v.1.15,2013-05-26 04:08:00,
2013-05-25 22:13:00,77.2,11.3,29.75,NNE,26,0.0,5.0,8,0.00,,,0.00,Wunderground v.1.15,2013-05-26 04:13:00,
2013-05-25 22:23:00,76.4,13.3,29.76,SE,146,1.0,1.0,9,0.00,,,0.00,Wunderground v.1.15,2013-05-26 04:23:00,
2013-05-25 22:33:00,76.0,15.4,29.77,NE,39,1.0,1.0,10,0.00,,,0.00,Wunderground v.1.15,2013-05-26 04:33:00,
2013-05-25 22:43:00,75.8,15.3,29.78,NNW,330,1.0,1.0,10,0.00,,,0.00,Wunderground v.1.15,2013-05-26 04:43:00,
2013-05-25 22:53:00,74.8,16.7,29.78,SW,236,0.0,0.0,11,0.00,,,0.00,Wunderground v.1.15,2013-05-26 04:53:00,
2013-05-25 22:58:00,74.0,16.1,29.79,SW,236,0.0,0.0,11,0.00,,,0.00,Wunderground v.1.15,2013-05-26 04:58:00,
2013-05-25 23:08:00,73.0,17.3,29.79,NNE,32,0.0,0.0,12,0.00,,,0.00,Wunderground v.1.15,2013-05-26 05:08:00,
2013-05-25 23:13:00,72.8,17.2,29.79,NW,322,0.0,0.0,12,0.00,,,0.00,Wunderground v.1.15,2013-05-26 05:13:00,
2013-05-25 23:18:00,73.4,15.6,29.79,North,356,1.0,2.0,11,0.00,,,0.00,Wunderground v.1.15,2013-05-26 05:18:00,
2013-05-25 23:23:00,74.0,16.1,29.80,NNW,328,1.0,2.0,11,0.00,,,0.00,Wunderground v.1.15,2013-05-26 05:23:00,
2013-05-25 23:28:00,74.0,16.1,29.80,NW,322,0.0,0.0,11,0.00,,,0.00,Wunderground v.1.15,2013-05-26 05:28:00,
2013-05-25 23:38:00,72.6,18.9,29.80,NW,314,0.0,0.0,13,0.00,,,0.00,Wunderground v.1.15,2013-05-26 05:38:00,
2013-05-25 23:43:00,71.7,18.2,29.80,ESE,120,0.0,1.0,13,0.00,,,0.00,Wunderground v.1.15,2013-05-26 05:43:00,
2013-05-25 23:48:00,71.1,19.4,29.80,SE,127,0.0,0.0,14,0.00,,,0.00,Wunderground v.1.15,2013-05-26 05:48:00,
2013-05-25 23:53:00,70.5,20.6,29.80,SE,125,0.0,1.0,15,0.00,,,0.00,Wunderground v.1.15,2013-05-26 05:53:00,
2013-05-25 23:59:00,70.0,20.2,29.80,ESE,122,0.0,0.0,15,0.00,,,0.00,Wunderground v.1.15,2013-05-26 05:59:00,